Regional Weather Roundup
Issued by NWS

Home | Current Version | Previous Version | Text Only | Print | Product List | Glossary Off
Versions: 1 2 3 4 5 6 7 8 9 10 11 12 13 14 15 16 17 18 19 20 21 22 23 24 25 26 27 28 29 30 31 32 33 34 35 36 37 38 39 40 41 42 43 44 45 46 47 48 49 50

000
ASUS43 KOAX 190802
RWRNE

WEATHER ROUNDUP FOR NEBRASKA
NATIONAL WEATHER SERVICE OMAHA NE
200 AM CST FRI JAN 19 2018

NOTES: SATELLITE DATA IS BEING USED TO AUGMENT CLOUD COVER ABOVE
       12000 FEET.
       "FAIR" INDICATES FEW OR NO CLOUDS BELOW 12,000 FEET WITH NO
       SIGNIFICANT WEATHER AND/OR OBSTRUCTIONS TO VISIBILITY.


NEZ001>004-019>022-054>056-190900-
NEBRASKA PANHANDLE

CITY           SKY/WX    TMP DP  RH WIND       PRES   REMARKS
SCOTTSBLUFF    CLOUDY    32  28  85 CALM      29.80F
ALLIANCE       MOCLDY    36  29  75 SW8       29.76F WCI  30
CHADRON        CLOUDY    33  29  85 CALM      29.71F
GORDON         FAIR      38  30  73 SW7       29.72F WCI  32
KIMBALL        CLOUDY    40  18  40 SW8       29.83F WCI  35
SIDNEY         MOCLDY    37  20  50 SW12      29.81F WCI  29
$$

NEZ057>060-069>072-079>082-190900-
SOUTHWEST NEBRASKA

CITY           SKY/WX    TMP DP  RH WIND       PRES   REMARKS
NORTH PLATTE   CLOUDY    25  22  88 NW3       29.80F
IMPERIAL       MOCLDY    32  24  72 W3        29.82F
LEXINGTON      CLOUDY    30  25  81 W8        29.79F WCI  23
MCCOOK         CLOUDY    28  22  78 W8        29.82F WCI  20
OGALLALA       MOCLDY    30  25  82 W5        29.81F WCI  25
$$

NEZ005>010-023>029-035>040-094-190900-
NORTH CENTRAL NEBRASKA

CITY           SKY/WX    TMP DP  RH WIND       PRES   REMARKS
VALENTINE      CLOUDY    40  30  67 W7        29.69F
AINSWORTH      CLOUDY    42  32  69 SW10      29.69F
BROKEN BOW     CLOUDY    32  23  69 W9        29.76F WCI  24
O`NEILL        CLOUDY    38  31  77 SW6       29.72F WCI  33
ORD            CLOUDY    33  27  78 CALM      29.75F
THEDFORD       CLOUDY    40  31  71 CALM      29.75F
$$

NEZ041-046>049-061>064-073>077-083>087-190900-
SOUTH CENTRAL NEBRASKA

CITY           SKY/WX    TMP DP  RH WIND       PRES   REMARKS
GRAND ISLAND   CLOUDY    34  27  75 SW8       29.79F WCI  27
AURORA         CLOUDY    35  25  67 SW13      29.80F WCI  26
HASTINGS       CLOUDY    38  20  48 SW8       29.81F WCI  32
HEBRON         PTCLDY    36  23  59 SW10      29.86F WCI  28
HOLDREGE       CLOUDY    35  26  69 SW7       29.81F WCI  29
YORK           CLOUDY    32  27  80 S8        29.82S WCI  25
$$

NEZ011>018-030>034-042>045-190900-
NORTHEAST NEBRASKA

CITY           SKY/WX    TMP DP  RH WIND       PRES   REMARKS
NORFOLK        CLOUDY    32  28  85 CALM      29.75F
ALBION         MOCLDY    34  29  82 SE3       29.76F
BLAIR          CLOUDY    32  25  74 S6        29.81F WCI  26
COLUMBUS       CLOUDY    27  23  85 CALM      29.80F
FREMONT        CLOUDY    32  25  76 S5        29.81F WCI  28
TEKAMAH        CLOUDY    26  21  81 SE8       29.81F WCI  18
WAYNE          CLOUDY    29  28  96 S5        29.76F WCI  24
$$

NEZ050>053-065>068-078-088>093-190900-
SOUTHEAST NEBRASKA

CITY           SKY/WX    TMP DP  RH WIND       PRES   REMARKS
LINCOLN        CLOUDY    32  23  69 S8        29.85F WCI  25
OMAHA EPPLEY   CLOUDY    27  21  78 SE10      29.84F WCI  17
BEATRICE       CLOUDY    34  26  72 S8        29.87F WCI  27
FALLS CITY     CLOUDY    34  23  64 S6        29.91F WCI  29
NEBRASKA CITY  PTCLDY    37  28  70 SW17      29.86F WCI  27
PLATTSMOUTH    CLOUDY    32  24  74 S12       29.84F WCI  23
$$

NEZ044-045-051>053-067-190900-
OMAHA AREA

CITY           SKY/WX    TMP DP  RH WIND       PRES   REMARKS
OMAHA EPPLEY   CLOUDY    27  21  78 SE10      29.84F WCI  17
BLAIR          CLOUDY    32  25  74 S6        29.81F WCI  26
FREMONT        CLOUDY    32  25  76 S5        29.81F WCI  28
MILLARD        CLOUDY    26  22  84 SE3       29.83F
OFFUTT AFB     CLOUDY    22  18  87 CALM      29.84F
PLATTSMOUTH    CLOUDY    32  24  74 S12       29.84F WCI  23
WAHOO          FAIR      30  24  79 S7        29.82S WCI  23
$$



USA.gov is the U.S. government's official web portal to all federal, state and local government web resources and services.